| time (UTC) | temp F | wind direction | speed knots | gust knots | rain 1hr in | rain 24hr in | rain mn in | humidity % | barometer mb |
| 20260510173145 | 79 | 102 | 6.1 | 11.3 | 0.00 | 0.00 | 0.00 | 79 | 1015.9 |
| 20260510172640 | 79 | 87 | 7.0 | 8.7 | 0.00 | 0.00 | 0.00 | 78 | 1015.8 |
| 20260510172137 | 79 | 165 | 3.5 | 5.2 | 0.00 | 0.00 | 0.00 | 79 | 1015.9 |
| 20260510171634 | 78 | 85 | 7.0 | 8.7 | 0.00 | 0.00 | 0.00 | 80 | 1016.1 |
| 20260510171131 | 79 | 128 | 7.0 | 11.3 | 0.00 | 0.00 | 0.00 | 80 | 1016.2 |
| 20260510170627 | 79 | 126 | 4.3 | 7.0 | 0.00 | 0.00 | 0.00 | 79 | 1016.2 |
| 20260510170124 | 79 | 156 | 6.1 | 8.7 | 0.00 | 0.00 | 0.00 | 80 | 1016.1 |
| 20260510165620 | 79 | 89 | 5.2 | 7.0 | 0.00 | 0.00 | 0.00 | 79 | 1016.3 |
| 20260510165116 | 79 | 130 | 2.6 | 3.5 | 0.00 | 0.00 | 0.00 | 79 | 1016.2 |
| 20260510164614 | 79 | 102 | 6.1 | 7.8 | 0.00 | 0.00 | 0.00 | 80 | 1016.5 |
| 20260510164110 | 79 | 84 | 3.5 | 8.7 | 0.00 | 0.00 | 0.00 | 81 | 1016.3 |
| 20260510163605 | 78 | 145 | 3.5 | 6.1 | 0.00 | 0.00 | 0.00 | 81 | 1016.5 |
| 20260510163102 | 78 | 94 | 5.2 | 7.0 | 0.00 | 0.00 | 0.00 | 82 | 1016.4 |
| 20260510162602 | 78 | 149 | 6.1 | 7.8 | 0.00 | 0.00 | 0.00 | 82 | 1016.3 |
| 20260510162059 | 78 | 135 | 8.7 | 11.3 | 0.00 | 0.00 | 0.00 | 83 | 1016.5 |
| 20260510161554 | 77 | 128 | 3.5 | 6.1 | 0.00 | 0.00 | 0.00 | 83 | 1016.3 |
| 20260510161052 | 77 | 97 | 7.0 | 7.8 | 0.00 | 0.00 | 0.00 | 83 | 1016.4 |
| 20260510160549 | 79 | 114 | 7.8 | 8.7 | 0.00 | 0.00 | 0.00 | 83 | 1016.2 |
| 20260510160048 | 77 | 48 | 1.7 | 2.6 | 0.00 | 0.00 | 0.00 | 85 | 1016.3 |
| 20260510155545 | 77 | 74 | 1.7 | 2.6 | 0.00 | 0.00 | 0.00 | 84 | 1016.3 |
| 20260510155041 | 78 | 89 | 4.3 | 6.1 | 0.00 | 0.00 | 0.00 | 84 | 1016.2 |
| 20260510154537 | 78 | 67 | 2.6 | 3.5 | 0.00 | 0.00 | 0.00 | 83 | 1016.2 |
| 20260510154032 | 78 | 40 | 4.3 | 6.1 | 0.00 | 0.00 | 0.00 | 84 | 1016.2 |
| 20260510153527 | 78 | 68 | 5.2 | 7.0 | 0.00 | 0.00 | 0.00 | 83 | 1016.1 |
| 20260510153025 | 79 | 37 | 2.6 | 5.2 | 0.00 | 0.00 | 0.00 | 83 | 1016.1 |
| 20260510152522 | 79 | 121 | 2.6 | 3.5 | 0.00 | 0.00 | 0.00 | 80 | 1016.0 |
| 20260510152018 | 77 | 91 | 5.2 | 6.1 | 0.00 | 0.00 | 0.00 | 83 | 1016.1 |
| 20260510151514 | 77 | 107 | 6.1 | 7.8 | 0.00 | 0.00 | 0.00 | 83 | 1016.2 |
| 20260510151012 | 77 | 93 | 3.5 | 3.5 | 0.00 | 0.00 | 0.00 | 83 | 1016.0 |
| 20260510150507 | 77 | 106 | 5.2 | 7.0 | 0.00 | 0.00 | 0.00 | 84 | 1015.9 |
| 20260510150003 | 77 | 85 | 1.7 | 2.6 | 0.00 | 0.00 | 0.00 | 83 | 1016.1 |
| 20260510145500 | 76 | 73 | 4.3 | 6.1 | 0.00 | 0.00 | 0.00 | 84 | 1016.0 |
| 20260510144956 | 77 | 118 | 6.1 | 7.8 | 0.00 | 0.00 | 0.00 | 83 | 1016.1 |
| 20260510144453 | 77 | 83 | 3.5 | 5.2 | 0.00 | 0.00 | 0.00 | 81 | 1015.9 |
| 20260510143949 | 77 | 70 | 3.5 | 5.2 | 0.00 | 0.00 | 0.00 | 81 | 1016.0 |
| 20260510143444 | 76 | 163 | 1.7 | 1.7 | 0.00 | 0.00 | 0.00 | 83 | 1015.8 |
| 20260510142942 | 76 | 126 | 2.6 | 3.5 | 0.00 | 0.00 | 0.00 | 82 | 1015.7 |
| 20260510142438 | 76 | 134 | 4.3 | 6.1 | 0.00 | 0.00 | 0.00 | 83 | 1015.8 |
| 20260510141935 | 76 | 175 | 2.6 | 2.6 | 0.00 | 0.00 | 0.00 | 83 | 1015.8 |
| 20260510141432 | 75 | 67 | 0.0 | 0.9 | 0.00 | 0.00 | 0.00 | 85 | 1015.6 |
| 20260510140929 | 75 | 111 | 3.5 | 3.5 | 0.00 | 0.00 | 0.00 | 86 | 1015.6 |
| 20260510140425 | 75 | 71 | 0.9 | 1.7 | 0.00 | 0.00 | 0.00 | 85 | 1015.5 |
| 20260510135924 | 74 | 113 | 0.0 | 0.9 | 0.00 | 0.00 | 0.00 | 86 | 1015.4 |
| 20260510135416 | 74 | 103 | 2.6 | 5.2 | 0.00 | 0.00 | 0.00 | 86 | 1015.5 |
| 20260510134913 | 74 | 129 | 4.3 | 6.1 | 0.00 | 0.00 | 0.00 | 87 | 1015.6 |
| 20260510134409 | 74 | 103 | 5.2 | 6.1 | 0.00 | 0.00 | 0.00 | 86 | 1015.4 |
| 20260510133906 | 74 | 176 | 4.3 | 5.2 | 0.00 | 0.00 | 0.00 | 86 | 1015.1 |
| 20260510133402 | 74 | 96 | 1.7 | 2.6 | 0.00 | 0.00 | 0.00 | 86 | 1015.1 |
| 20260510132857 | 73 | 86 | 0.9 | 1.7 | 0.00 | 0.00 | 0.00 | 87 | 1015.3 |
| 20260510132356 | 73 | 107 | 3.5 | 5.2 | 0.00 | 0.00 | 0.00 | 88 | 1015.1 |
| 20260510131852 | 73 | 111 | 3.5 | 5.2 | 0.00 | 0.00 | 0.00 | 88 | 1015.0 |
| 20260510131349 | 72 | 128 | 2.6 | 2.6 | 0.00 | 0.00 | 0.00 | 89 | 1014.6 |
| 20260510130845 | 72 | 132 | 0.9 | 1.7 | 0.00 | 0.00 | 0.00 | 89 | 1014.7 |
| 20260510130343 | 72 | 98 | 1.7 | 3.5 | 0.00 | 0.00 | 0.00 | 90 | 1014.6 |
| 20260510125834 | 72 | 91 | 2.6 | 5.2 | 0.00 | 0.00 | 0.00 | 89 | 1014.6 |
| 20260510125330 | 72 | 124 | 3.5 | 3.5 | 0.00 | 0.00 | 0.00 | 89 | 1014.6 |
| 20260510124827 | 71 | 46 | 1.7 | 2.6 | 0.00 | 0.00 | 0.00 | 90 | 1014.6 |
| 20260510124324 | 71 | 67 | 0.0 | 0.9 | 0.00 | 0.00 | 0.00 | 90 | 1014.3 |
| 20260510123820 | 71 | 143 | 3.5 | 3.5 | 0.00 | 0.00 | 0.00 | 90 | 1014.4 |
| 20260510123315 | 71 | 125 | 1.7 | 1.7 | 0.00 | 0.00 | 0.00 | 89 | 1014.3 |
| 20260510122812 | 71 | 133 | 1.7 | 1.7 | 0.00 | 0.00 | 0.00 | 89 | 1013.9 |
| 20260510122308 | 71 | 95 | 0.9 | 0.9 | 0.00 | 0.00 | 0.00 | 90 | 1013.9 |
| 20260510121804 | 70 | 123 | 3.5 | 3.5 | 0.00 | 0.00 | 0.00 | 90 | 1013.7 |
| 20260510121302 | 70 | 156 | 1.7 | 1.7 | 0.00 | 0.00 | 0.00 | 91 | 1013.7 |
| 20260510120759 | 70 | 148 | 2.6 | 3.5 | 0.00 | 0.00 | 0.00 | 90 | 1013.6 |
| 20260510120256 | 70 | 184 | 1.7 | 1.7 | 0.00 | 0.00 | 0.00 | 91 | 1013.4 |
| 20260510115752 | 70 | 175 | 3.5 | 3.5 | 0.00 | 0.00 | 0.00 | 91 | 1013.2 |
| 20260510115250 | 70 | 167 | 2.6 | 2.6 | 0.00 | 0.00 | 0.00 | 91 | 1013.5 |
| 20260510114744 | 70 | 180 | 2.6 | 3.5 | 0.00 | 0.00 | 0.00 | 91 | 1013.4 |
| 20260510114242 | 69 | 192 | 0.0 | 0.0 | 0.00 | 0.00 | 0.00 | 91 | 1013.5 |
| 20260510113737 | 69 | 196 | 2.6 | 3.5 | 0.00 | 0.00 | 0.00 | 91 | 1013.6 |
| 20260510113234 | 70 | 218 | 1.7 | 2.6 | 0.00 | 0.00 | 0.00 | 91 | 1013.4 |
| 20260510112731 | 70 | 194 | 1.7 | 2.6 | 0.00 | 0.00 | 0.00 | 90 | 1013.2 |
| 20260510112227 | 69 | 215 | 1.7 | 1.7 | 0.00 | 0.00 | 0.00 | 90 | 1013.4 |
| 20260510111717 | 69 | 184 | 2.6 | 6.1 | 0.00 | 0.00 | 0.00 | 91 | 1013.1 |
| 20260510111215 | 70 | 210 | 1.7 | 1.7 | 0.00 | 0.00 | 0.00 | 90 | 1013.0 |
| 20260510110714 | 70 | 209 | 0.9 | 0.9 | 0.00 | 0.00 | 0.00 | 90 | 1013.1 |
| 20260510110213 | 70 | 261 | 0.9 | 0.9 | 0.00 | 0.00 | 0.00 | 90 | 1013.1 |
| 20260510105712 | 70 | 217 | 1.7 | 1.7 | 0.00 | 0.00 | 0.00 | 89 | 1013.2 |
| 20260510105207 | 70 | 220 | 2.6 | 2.6 | 0.00 | 0.00 | 0.00 | 89 | 1013.1 |
| 20260510104704 | 71 | 220 | 2.6 | 3.5 | 0.00 | 0.00 | 0.00 | 88 | 1012.9 |
| 20260510104201 | 71 | 258 | 1.7 | 2.6 | 0.00 | 0.00 | 0.00 | 88 | 1012.7 |
| 20260510103658 | 71 | 215 | 4.3 | 5.2 | 0.00 | 0.00 | 0.00 | 88 | 1012.5 |
| 20260510103155 | 71 | 201 | 1.7 | 2.6 | 0.00 | 0.00 | 0.00 | 88 | 1012.6 |
| 20260510102655 | 71 | 184 | 2.6 | 2.6 | 0.00 | 0.00 | 0.00 | 88 | 1012.9 |
| 20260510102151 | 71 | 216 | 0.9 | 0.9 | 0.00 | 0.00 | 0.00 | 88 | 1012.9 |
| 20260510101648 | 71 | 161 | 3.5 | 5.2 | 0.00 | 0.00 | 0.00 | 88 | 1012.7 |
| 20260510101146 | 71 | 215 | 5.2 | 6.1 | 0.00 | 0.00 | 0.00 | 87 | 1012.4 |
| 20260510100642 | 71 | 179 | 7.8 | 7.8 | 0.00 | 0.00 | 0.00 | 87 | 1012.3 |
| 20260510100140 | 71 | 195 | 3.5 | 7.0 | 0.00 | 0.00 | 0.00 | 87 | 1012.4 |
| 20260510095635 | 71 | 189 | 1.7 | 3.5 | 0.00 | 0.00 | 0.00 | 87 | 1012.3 |
| 20260510095131 | 71 | 184 | 5.2 | 6.1 | 0.00 | 0.00 | 0.00 | 87 | 1012.2 |
| 20260510094629 | 71 | 198 | 5.2 | 7.0 | 0.00 | 0.00 | 0.00 | 87 | 1012.3 |
| 20260510094126 | 71 | 188 | 0.9 | 0.9 | 0.00 | 0.00 | 0.00 | 86 | 1012.3 |
| 20260510093622 | 71 | 119 | 3.5 | 5.2 | 0.00 | 0.00 | 0.00 | 86 | 1012.4 |
| 20260510093119 | 71 | 190 | 3.5 | 5.2 | 0.00 | 0.00 | 0.00 | 86 | 1012.3 |
| 20260510092615 | 71 | 201 | 3.5 | 5.2 | 0.00 | 0.00 | 0.00 | 86 | 1012.4 |
| 20260510092115 | 71 | 229 | 4.3 | 6.1 | 0.00 | 0.00 | 0.00 | 86 | 1012.3 |
| 20260510091612 | 71 | 170 | 3.5 | 7.0 | 0.00 | 0.00 | 0.00 | 86 | 1012.2 |
| 20260510091108 | 71 | 175 | 4.3 | 6.1 | 0.00 | 0.00 | 0.00 | 87 | 1012.2 |
| 20260510090605 | 71 | 185 | 5.2 | 7.8 | 0.00 | 0.00 | 0.00 | 86 | 1012.0 |
| 20260510090101 | 71 | 157 | 2.6 | 3.5 | 0.00 | 0.00 | 0.00 | 86 | 1012.1 |
| 20260510085556 | 72 | 160 | 7.8 | 8.7 | 0.00 | 0.00 | 0.00 | 86 | 1012.2 |
| 20260510085052 | 72 | 154 | 6.1 | 7.8 | 0.00 | 0.00 | 0.00 | 86 | 1012.2 |
| 20260510084549 | 72 | 181 | 2.6 | 3.5 | 0.00 | 0.00 | 0.00 | 86 | 1012.3 |
| 20260510084046 | 72 | 194 | 2.6 | 2.6 | 0.00 | 0.00 | 0.00 | 85 | 1012.5 |
| 20260510083542 | 72 | 200 | 7.0 | 9.6 | 0.00 | 0.00 | 0.00 | 85 | 1012.3 |
| 20260510083038 | 72 | 137 | 2.6 | 3.5 | 0.00 | 0.00 | 0.00 | 85 | 1012.6 |
| 20260510082535 | 72 | 169 | 4.3 | 5.2 | 0.00 | 0.00 | 0.00 | 85 | 1012.5 |
| 20260510082031 | 72 | 196 | 3.5 | 5.2 | 0.00 | 0.00 | 0.00 | 85 | 1012.5 |
| 20260510081526 | 72 | 128 | 3.5 | 3.5 | 0.00 | 0.00 | 0.00 | 84 | 1012.5 |
| 20260510081022 | 72 | 185 | 6.1 | 7.0 | 0.00 | 0.00 | 0.00 | 84 | 1012.4 |
| 20260510080521 | 72 | 199 | 3.5 | 3.5 | 0.00 | 0.00 | 0.00 | 84 | 1012.6 |
| 20260510080018 | 72 | 147 | 2.6 | 2.6 | 0.00 | 0.00 | 0.00 | 84 | 1012.8 |
| 20260510075515 | 73 | 113 | 2.6 | 3.5 | 0.00 | 0.00 | 0.00 | 83 | 1012.9 |
| 20260510075012 | 73 | 162 | 3.5 | 3.5 | 0.00 | 0.00 | 0.00 | 82 | 1012.8 |
| 20260510074510 | 74 | 114 | 4.3 | 5.2 | 0.00 | 0.00 | 0.00 | 81 | 1012.9 |
| 20260510074005 | 74 | 122 | 4.3 | 6.1 | 0.00 | 0.00 | 0.00 | 81 | 1012.6 |
| 20260510073501 | 74 | 172 | 4.3 | 6.1 | 0.00 | 0.00 | 0.00 | 81 | 1012.5 |
| 20260510072958 | 73 | 186 | 4.3 | 5.2 | 0.00 | 0.00 | 0.00 | 81 | 1012.6 |
| 20260510072455 | 73 | 153 | 3.5 | 6.1 | 0.00 | 0.00 | 0.00 | 81 | 1012.7 |
| 20260510071950 | 73 | 223 | 5.2 | 5.2 | 0.00 | 0.00 | 0.00 | 82 | 1012.7 |
| 20260510071447 | 73 | 162 | 2.6 | 5.2 | 0.00 | 0.00 | 0.00 | 82 | 1012.8 |
| 20260510070945 | 73 | 110 | 4.3 | 6.1 | 0.00 | 0.00 | 0.00 | 81 | 1012.6 |
| 20260510070442 | 73 | 167 | 2.6 | 3.5 | 0.00 | 0.00 | 0.00 | 81 | 1012.7 |
| 20260510065938 | 73 | 178 | 3.5 | 5.2 | 0.00 | 0.00 | 0.00 | 81 | 1012.7 |
| 20260510065435 | 73 | 114 | 3.5 | 3.5 | 0.00 | 0.00 | 0.00 | 80 | 1012.6 |
| 20260510064931 | 73 | 155 | 3.5 | 5.2 | 0.00 | 0.00 | 0.00 | 80 | 1012.7 |
| 20260510064428 | 73 | 119 | 4.3 | 6.1 | 0.00 | 0.00 | 0.00 | 79 | 1012.9 |
| 20260510063924 | 74 | 171 | 2.6 | 5.2 | 0.00 | 0.00 | 0.00 | 79 | 1012.9 |
| 20260510063415 | 74 | 125 | 2.6 | 2.6 | 0.00 | 0.00 | 0.00 | 79 | 1012.6 |
| 20260510062913 | 74 | 136 | 3.5 | 6.1 | 0.00 | 0.00 | 0.00 | 78 | 1012.7 |
| 20260510062408 | 74 | 136 | 5.2 | 7.8 | 0.00 | 0.00 | 0.00 | 78 | 1012.7 |
| 20260510061904 | 74 | 102 | 1.7 | 1.7 | 0.00 | 0.00 | 0.00 | 77 | 1012.5 |
| 20260510061401 | 75 | 114 | 4.3 | 6.1 | 0.00 | 0.00 | 0.00 | 77 | 1012.6 |
| 20260510060856 | 75 | 91 | 5.2 | 6.1 | 0.00 | 0.00 | 0.00 | 76 | 1012.7 |
| 20260510060354 | 75 | 101 | 3.5 | 3.5 | 0.00 | 0.00 | 0.00 | 76 | 1012.5 |
| 20260510055850 | 75 | 94 | 5.2 | 6.1 | 0.00 | 0.00 | 0.00 | 75 | 1012.4 |
| 20260510055349 | 75 | 181 | 1.7 | 1.7 | 0.00 | 0.00 | 0.00 | 75 | 1012.6 |
| 20260510054843 | 75 | 91 | 1.7 | 1.7 | 0.00 | 0.00 | 0.00 | 75 | 1012.7 |
| 20260510054339 | 75 | 165 | 4.3 | 6.1 | 0.00 | 0.00 | 0.00 | 75 | 1012.7 |
| 20260510053833 | 75 | 134 | 5.2 | 7.0 | 0.00 | 0.00 | 0.00 | 76 | 1012.4 |
| 20260510053329 | 75 | 166 | 1.7 | 1.7 | 0.00 | 0.00 | 0.00 | 76 | 1012.6 |
| 20260510052826 | 76 | 131 | 1.7 | 2.6 | 0.00 | 0.00 | 0.00 | 76 | 1012.5 |
| 20260510052322 | 76 | 127 | 0.9 | 1.7 | 0.00 | 0.00 | 0.00 | 77 | 1012.6 |
| 20260510051818 | 76 | 91 | 1.7 | 1.7 | 0.00 | 0.00 | 0.00 | 77 | 1012.6 |
| 20260510051315 | 76 | 97 | 3.5 | 3.5 | 0.00 | 0.00 | 0.00 | 78 | 1012.6 |
| 20260510050812 | 76 | 121 | 1.7 | 1.7 | 0.00 | 0.00 | 0.00 | 78 | 1012.7 |
| 20260510050309 | 76 | 87 | 0.9 | 1.7 | 0.00 | 0.00 | 0.00 | 78 | 1012.6 |
| 20260510045806 | 76 | 147 | 1.7 | 2.6 | 0.00 | 0.00 | 0.00 | 78 | 1012.6 |
| 20260510045305 | 76 | 81 | 1.7 | 1.7 | 0.00 | 0.00 | 0.00 | 79 | 1012.3 |
| 20260510044759 | 76 | 116 | 3.5 | 3.5 | 0.00 | 0.00 | 0.00 | 79 | 1012.4 |
| 20260510044256 | 76 | 93 | 1.7 | 2.6 | 0.00 | 0.00 | 0.00 | 80 | 1012.4 |
| 20260510043752 | 76 | 109 | 0.9 | 0.9 | 0.00 | 0.00 | 0.00 | 82 | 1012.6 |
| 20260510043243 | 77 | 92 | 2.6 | 2.6 | 0.00 | 0.00 | 0.00 | 82 | 1012.7 |
| 20260510042740 | 77 | 100 | 3.5 | 5.2 | 0.00 | 0.00 | 0.00 | 81 | 1012.4 |
| 20260510042230 | 77 | 69 | 1.7 | 1.7 | 0.00 | 0.00 | 0.00 | 82 | 1012.5 |
| 20260510041727 | 77 | 84 | 0.0 | 0.9 | 0.00 | 0.00 | 0.00 | 81 | 1012.5 |
| 20260510041225 | 77 | 111 | 0.9 | 1.7 | 0.00 | 0.00 | 0.00 | 81 | 1012.5 |
| 20260510040721 | 77 | 87 | 2.6 | 2.6 | 0.00 | 0.00 | 0.00 | 81 | 1012.5 |
| 20260510040218 | 78 | 91 | 1.7 | 2.6 | 0.00 | 0.00 | 0.00 | 80 | 1012.3 |
| 20260510035713 | 78 | 138 | 1.7 | 1.7 | 0.00 | 0.00 | 0.00 | 80 | 1012.4 |
| 20260510035210 | 78 | 132 | 1.7 | 1.7 | 0.00 | 0.00 | 0.00 | 80 | 1012.4 |
| 20260510034705 | 78 | 101 | 1.7 | 1.7 | 0.00 | 0.00 | 0.00 | 80 | 1012.4 |
| 20260510034203 | 78 | 104 | 2.6 | 2.6 | 0.00 | 0.00 | 0.00 | 80 | 1012.3 |
| 20260510033659 | 78 | 118 | 0.9 | 1.7 | 0.00 | 0.00 | 0.00 | 79 | 1012.3 |
| 20260510033158 | 78 | 134 | 1.7 | 2.6 | 0.00 | 0.00 | 0.00 | 79 | 1012.1 |
| 20260510032653 | 78 | 99 | 1.7 | 2.6 | 0.00 | 0.00 | 0.00 | 79 | 1012.2 |
| 20260510032149 | 79 | 111 | 1.7 | 2.6 | 0.00 | 0.00 | 0.00 | 79 | 1012.2 |
| 20260510031643 | 79 | 99 | 3.5 | 5.2 | 0.00 | 0.00 | 0.00 | 78 | 1012.1 |
| 20260510031140 | 79 | 143 | 1.7 | 1.7 | 0.00 | 0.00 | 0.00 | 78 | 1012.0 |
| 20260510030635 | 79 | 114 | 1.7 | 2.6 | 0.00 | 0.00 | 0.00 | 78 | 1011.9 |
| 20260510030133 | 79 | 104 | 3.5 | 5.2 | 0.00 | 0.00 | 0.00 | 78 | 1011.8 |
| 20260510025630 | 80 | 81 | 1.7 | 1.7 | 0.00 | 0.00 | 0.00 | 77 | 1011.8 |
| 20260510025127 | 80 | 78 | 2.6 | 3.5 | 0.00 | 0.00 | 0.00 | 77 | 1011.6 |
| 20260510024624 | 80 | 110 | 0.9 | 0.9 | 0.00 | 0.00 | 0.00 | 76 | 1011.6 |
| 20260510024121 | 80 | 101 | 2.6 | 2.6 | 0.00 | 0.00 | 0.00 | 76 | 1011.6 |
| 20260510023616 | 80 | 138 | 6.1 | 7.0 | 0.00 | 0.00 | 0.00 | 75 | 1011.4 |
| 20260510023113 | 81 | 148 | 0.9 | 1.7 | 0.00 | 0.00 | 0.00 | 73 | 1011.6 |
| 20260510022608 | 81 | 86 | 2.6 | 2.6 | 0.00 | 0.00 | 0.00 | 72 | 1011.5 |
| 20260510022102 | 81 | 68 | 1.7 | 2.6 | 0.00 | 0.00 | 0.00 | 71 | 1011.2 |
| 20260510021559 | 82 | 127 | 3.5 | 5.2 | 0.00 | 0.00 | 0.00 | 70 | 1011.1 |
| 20260510021056 | 82 | 136 | 0.9 | 0.9 | 0.00 | 0.00 | 0.00 | 68 | 1011.0 |
| 20260510020550 | 82 | 144 | 0.9 | 1.7 | 0.00 | 0.00 | 0.00 | 67 | 1010.8 |
| 20260510020046 | 82 | 125 | 1.7 | 1.7 | 0.00 | 0.00 | 0.00 | 67 | 1010.7 |
| 20260510015542 | 82 | 142 | 2.6 | 2.6 | 0.00 | 0.00 | 0.00 | 66 | 1010.8 |
| 20260510015038 | 82 | 135 | 0.9 | 0.9 | 0.00 | 0.00 | 0.00 | 66 | 1010.7 |
| 20260510014535 | 83 | 105 | 1.7 | 2.6 | 0.00 | 0.00 | 0.00 | 65 | 1010.7 |
| 20260510014032 | 83 | 153 | 1.7 | 1.7 | 0.00 | 0.00 | 0.00 | 64 | 1010.9 |
| 20260510013526 | 83 | 130 | 1.7 | 1.7 | 0.00 | 0.00 | 0.00 | 64 | 1010.8 |
| 20260510013022 | 83 | 137 | 1.7 | 1.7 | 0.00 | 0.00 | 0.00 | 63 | 1010.6 |
| 20260510012522 | 83 | 118 | 1.7 | 1.7 | 0.00 | 0.00 | 0.00 | 63 | 1010.6 |
| 20260510012019 | 84 | 125 | 1.7 | 1.7 | 0.00 | 0.00 | 0.00 | 62 | 1010.7 |
| 20260510011518 | 84 | 99 | 1.7 | 2.6 | 0.00 | 0.00 | 0.00 | 61 | 1010.4 |
| 20260510011013 | 84 | 143 | 2.6 | 3.5 | 0.00 | 0.00 | 0.00 | 61 | 1010.6 |
| 20260510010511 | 84 | 116 | 2.6 | 2.6 | 0.00 | 0.00 | 0.00 | 60 | 1010.6 |
| 20260510010008 | 85 | 103 | 3.5 | 5.2 | 0.00 | 0.00 | 0.00 | 60 | 1010.5 |
| 20260510005503 | 85 | 99 | 2.6 | 3.5 | 0.00 | 0.00 | 0.00 | 60 | 1010.4 |
| 20260510005001 | 85 | 94 | 3.5 | 5.2 | 0.00 | 0.00 | 0.00 | 60 | 1010.4 |
| 20260510004458 | 85 | 87 | 3.5 | 5.2 | 0.00 | 0.00 | 0.00 | 59 | 1010.3 |
| 20260510003957 | 85 | 84 | 3.5 | 5.2 | 0.00 | 0.00 | 0.00 | 58 | 1010.3 |
| 20260510003453 | 85 | 105 | 4.3 | 5.2 | 0.00 | 0.00 | 0.00 | 58 | 1010.4 |
| 20260510002948 | 85 | 97 | 3.5 | 3.5 | 0.00 | 0.00 | 0.00 | 58 | 1010.3 |
| 20260510002444 | 86 | 122 | 4.3 | 6.1 | 0.00 | 0.00 | 0.00 | 58 | 1010.2 |
| 20260510001941 | 86 | 106 | 6.1 | 7.8 | 0.00 | 0.00 | 0.00 | 57 | 1010.2 |
| 20260510001438 | 86 | 86 | 3.5 | 3.5 | 0.00 | 0.00 | 0.00 | 57 | 1010.2 |
| 20260510000936 | 86 | 81 | 3.5 | 6.1 | 0.00 | 0.00 | 0.00 | 57 | 1010.0 |
| 20260510000433 | 86 | 108 | 3.5 | 5.2 | 0.00 | 0.00 | 0.00 | 56 | 1010.1 |
| 20260509235928 | 86 | 107 | 5.2 | 6.1 | 0.00 | 0.00 | 0.00 | 57 | 1010.1 |
| 20260509235426 | 87 | 152 | 1.7 | 2.6 | 0.00 | 0.00 | 0.00 | 57 | 1009.8 |
| 20260509234922 | 87 | 124 | 2.6 | 2.6 | 0.00 | 0.00 | 0.00 | 56 | 1010.0 |
| 20260509234419 | 87 | 98 | 1.7 | 3.5 | 0.00 | 0.00 | 0.00 | 56 | 1009.8 |
| 20260509233917 | 87 | 66 | 0.0 | 0.0 | 0.00 | 0.00 | 0.00 | 56 | 1009.8 |
| 20260509233414 | 86 | 169 | 4.3 | 5.2 | 0.00 | 0.00 | 0.00 | 56 | 1009.8 |
| 20260509232910 | 87 | 131 | 3.5 | 3.5 | 0.00 | 0.00 | 0.00 | 56 | 1009.8 |
| 20260509232408 | 86 | 119 | 3.5 | 5.2 | 0.00 | 0.00 | 0.00 | 56 | 1009.8 |
| 20260509231903 | 87 | 36 | 0.0 | 0.0 | 0.00 | 0.00 | 0.00 | 55 | 1009.6 |
| 20260509231400 | 87 | 94 | 3.5 | 5.2 | 0.00 | 0.00 | 0.00 | 56 | 1009.7 |
| 20260509230859 | 87 | 131 | 5.2 | 7.0 | 0.00 | 0.00 | 0.00 | 56 | 1009.7 |
| 20260509230355 | 88 | 123 | 3.5 | 3.5 | 0.00 | 0.00 | 0.00 | 56 | 1009.8 |
| 20260509225851 | 87 | 59 | 3.5 | 3.5 | 0.00 | 0.00 | 0.00 | 55 | 1009.7 |
| 20260509225348 | 88 | 134 | 3.5 | 5.2 | 0.00 | 0.00 | 0.00 | 54 | 1009.7 |
| 20260509224843 | 87 | 82 | 5.2 | 6.1 | 0.00 | 0.00 | 0.00 | 55 | 1009.7 |
| 20260509224339 | 87 | 86 | 1.7 | 2.6 | 0.00 | 0.00 | 0.00 | 55 | 1009.9 |
| 20260509223837 | 87 | 152 | 3.5 | 5.2 | 0.00 | 0.00 | 0.00 | 54 | 1009.8 |
| 20260509223333 | 86 | 92 | 5.2 | 7.0 | 0.00 | 0.00 | 0.00 | 56 | 1009.7 |
| 20260509222830 | 86 | 81 | 3.5 | 3.5 | 0.00 | 0.00 | 0.00 | 57 | 1009.7 |
| 20260509222326 | 87 | 94 | 6.1 | 7.0 | 0.00 | 0.00 | 0.00 | 55 | 1009.8 |
| 20260509221821 | 87 | 126 | 2.6 | 2.6 | 0.00 | 0.00 | 0.00 | 55 | 1009.7 |
| 20260509221319 | 87 | 72 | 1.7 | 1.7 | 0.00 | 0.00 | 0.00 | 55 | 1009.8 |
| 20260509220814 | 87 | 146 | 4.3 | 6.1 | 0.00 | 0.00 | 0.00 | 55 | 1009.7 |
| 20260509220310 | 87 | 82 | 3.5 | 5.2 | 0.00 | 0.00 | 0.00 | 54 | 1009.7 |
| 20260509215806 | 87 | 122 | 4.3 | 6.1 | 0.00 | 0.00 | 0.00 | 53 | 1009.8 |
| 20260509215306 | 87 | 121 | 4.3 | 7.0 | 0.00 | 0.00 | 0.00 | 53 | 1009.9 |
| 20260509214800 | 88 | 132 | 7.0 | 7.8 | 0.00 | 0.00 | 0.00 | 53 | 1009.8 |
| 20260509214257 | 88 | 91 | 4.3 | 6.1 | 0.00 | 0.00 | 0.00 | 50 | 1010.0 |
| 20260509213754 | 88 | 119 | 6.1 | 7.0 | 0.00 | 0.00 | 0.00 | 51 | 1010.0 |
| 20260509213249 | 90 | 68 | 3.5 | 7.0 | 0.00 | 0.00 | 0.00 | 51 | 1009.9 |
| 20260509212747 | 89 | 187 | 0.0 | 0.0 | 0.00 | 0.00 | 0.00 | 48 | 1010.0 |
| 20260509212244 | 88 | 40 | 0.0 | 0.9 | 0.00 | 0.00 | 0.00 | 49 | 1010.1 |
| 20260509211745 | 88 | 349 | 1.7 | 1.7 | 0.00 | 0.00 | 0.00 | 53 | 1010.1 |
| 20260509211241 | 87 | 12 | 1.7 | 2.6 | 0.00 | 0.00 | 0.00 | 52 | 1010.3 |
| 20260509210738 | 88 | 339 | 3.5 | 5.2 | 0.00 | 0.00 | 0.00 | 51 | 1010.3 |
| 20260509210236 | 87 | 221 | 0.0 | 0.0 | 0.00 | 0.00 | 0.00 | 54 | 1010.4 |
| 20260509205735 | 87 | 352 | 1.7 | 1.7 | 0.00 | 0.00 | 0.00 | 51 | 1010.5 |
| 20260509205236 | 86 | 117 | 0.0 | 0.9 | 0.00 | 0.00 | 0.00 | 55 | 1010.6 |
| 20260509204732 | 86 | 206 | 0.0 | 0.0 | 0.00 | 0.00 | 0.00 | 51 | 1010.4 |
| 20260509204228 | 86 | 53 | 2.6 | 2.6 | 0.00 | 0.00 | 0.00 | 49 | 1010.8 |
| 20260509203724 | 85 | 101 | 2.6 | 3.5 | 0.00 | 0.00 | 0.00 | 48 | 1010.6 |
| 20260509203223 | 86 | 53 | 1.7 | 3.5 | 0.00 | 0.00 | 0.00 | 50 | 1010.8 |
| 20260509202718 | 85 | 72 | 3.5 | 3.5 | 0.00 | 0.00 | 0.00 | 47 | 1010.7 |
| 20260509202214 | 85 | 129 | 2.6 | 3.5 | 0.00 | 0.00 | 0.00 | 49 | 1011.0 |
| 20260509201709 | 83 | 116 | 4.3 | 6.1 | 0.00 | 0.00 | 0.00 | 52 | 1011.3 |
| 20260509201206 | 83 | 121 | 6.1 | 8.7 | 0.00 | 0.00 | 0.00 | 54 | 1011.4 |
| 20260509200702 | 82 | 95 | 9.6 | 11.3 | 0.00 | 0.00 | 0.00 | 54 | 1011.5 |
| 20260509200157 | 81 | 92 | 7.0 | 8.7 | 0.00 | 0.00 | 0.00 | 52 | 1011.8 |
| 20260509195653 | 81 | 118 | 5.2 | 7.0 | 0.00 | 0.00 | 0.00 | 49 | 1011.8 |
| 20260509195149 | 81 | 84 | 5.2 | 9.6 | 0.00 | 0.00 | 0.00 | 48 | 1012.0 |
| 20260509194643 | 81 | 177 | 5.2 | 7.0 | 0.00 | 0.00 | 0.00 | 52 | 1011.9 |
| 20260509194141 | 82 | 168 | 7.0 | 12.2 | 0.00 | 0.00 | 0.00 | 60 | 1011.8 |
| 20260509193636 | 84 | 194 | 6.1 | 8.7 | 0.00 | 0.00 | 0.00 | 59 | 1011.8 |
| 20260509193132 | 86 | 262 | 0.0 | 0.9 | 0.00 | 0.00 | 0.00 | 64 | 1011.7 |
| 20260509192629 | 86 | 351 | 0.9 | 2.6 | 0.00 | 0.00 | 0.00 | 65 | 1011.5 |
| 20260509192123 | 86 | 42 | 2.6 | 3.5 | 0.00 | 0.00 | 0.00 | 65 | 1011.4 |
| 20260509191618 | 86 | 314 | 0.9 | 1.7 | 0.00 | 0.00 | 0.00 | 66 | 1011.4 |
| 20260509191115 | 85 | 274 | 2.6 | 2.6 | 0.00 | 0.00 | 0.00 | 66 | 1011.4 |
| 20260509190611 | 85 | 308 | 7.8 | 9.6 | 0.00 | 0.00 | 0.00 | 66 | 1011.4 |
| 20260509190109 | 85 | 25 | 1.7 | 3.5 | 0.00 | 0.00 | 0.00 | 68 | 1011.4 |
| 20260509185606 | 86 | 354 | 1.7 | 3.5 | 0.00 | 0.00 | 0.00 | 69 | 1011.5 |
| 20260509185102 | 85 | 330 | 6.1 | 7.0 | 0.00 | 0.00 | 0.00 | 71 | 1011.6 |
| 20260509184601 | 84 | 320 | 8.7 | 9.6 | 0.00 | 0.00 | 0.00 | 70 | 1011.7 |
| 20260509184057 | 85 | 308 | 3.5 | 5.2 | 0.00 | 0.00 | 0.00 | 68 | 1011.7 |
| 20260509183552 | 86 | 333 | 6.1 | 7.0 | 0.00 | 0.00 | 0.00 | 67 | 1011.8 |
| 20260509183048 | 86 | 247 | 0.0 | 0.9 | 0.00 | 0.00 | 0.00 | 66 | 1012.0 |
| 20260509182545 | 86 | 292 | 3.5 | 5.2 | 0.00 | 0.00 | 0.00 | 67 | 1011.9 |
| 20260509182042 | 85 | 279 | 0.9 | 0.9 | 0.00 | 0.00 | 0.00 | 68 | 1012.1 |
| 20260509181540 | 86 | 329 | 2.6 | 3.5 | 0.00 | 0.00 | 0.00 | 68 | 1012.2 |
| 20260509181037 | 87 | 287 | 3.5 | 5.2 | 0.00 | 0.00 | 0.00 | 66 | 1012.1 |
| 20260509180532 | 86 | 334 | 0.9 | 0.9 | 0.00 | 0.00 | 0.00 | 68 | 1012.4 |
| 20260509180030 | 84 | 299 | 0.9 | 0.9 | 0.00 | 0.00 | 0.00 | 70 | 1012.5 |
| 20260509175525 | 84 | 319 | 1.7 | 1.7 | 0.00 | 0.00 | 0.00 | 70 | 1012.2 |
| 20260509175017 | 85 | 265 | 1.7 | 1.7 | 0.00 | 0.00 | 0.00 | 69 | 1012.3 |
| 20260509174513 | 84 | 191 | 0.9 | 0.9 | 0.00 | 0.00 | 0.00 | 72 | 1012.4 |
| 20260509174009 | 84 | 186 | 0.0 | 0.9 | 0.00 | 0.00 | 0.00 | 73 | 1012.3 |
| 20260509173503 | 83 | 224 | 5.2 | 5.2 | 0.00 | 0.00 | 0.00 | 73 | 1012.5 |